Regional Weather Roundup
Issued by NWS

Home | Current Version | Previous Version | Graphics & Text | Print | Product List | Glossary On
Versions: 1 2 3 4 5 6 7 8 9 10 11 12 13 14 15 16 17 18 19 20 21 22 23 24 25 26 27 28 29 30 31 32 33 34 35 36 37 38 39 40 41 42 43 44 45 46 47 48 49 50
000
ASUS44 KMEG 300900
RWRTN
TENNESSEE HOURLY STATE WEATHER ROUNDUP
NATIONAL WEATHER SERVICE MEMPHIS TN
400 AM CDT SAT JUL 30 2016

TNZ002-004-019-021-049-052-054-088>092-301000-
WEST TENNESSEE

CITY           SKY/WX    TMP DP  RH WIND       PRES   REMARKS
MEMPHIS INTL   MOCLDY    72  70  93 CALM      29.96S FOG
NWS MEMPHIS      N/A     71 N/A N/A MISG        N/A
JACKSON        CLOUDY    72  71  97 W6        29.97R
DYERSBURG      MOCLDY   N/A N/A N/A MISG        N/A
PARIS          MOCLDY    68  68 100 CALM      29.97S VSB 1/2
LEXINGTON      CLOUDY    70  70 100 CALM      29.96S VSB 1/2
$$

TNZ008-025-027-028-033-062-065-066-301000-
NORTH MIDDLE TENNESSEE

CITY           SKY/WX    TMP DP  RH WIND       PRES   REMARKS
NASHVILLE      CLOUDY    74  70  87 W5        29.98R
CLARKSVILLE    CLOUDY    72  70  93 SW5       29.95F
COOKEVILLE     PTCLDY    72  72 100 CALM      29.98S
CROSSVILLE     CLOUDY    71  69  93 CALM      30.03R
$$

TNZ061-075-076-078-094-096-097-301000-
SOUTH MIDDLE TENNESSEE

CITY           SKY/WX    TMP DP  RH WIND       PRES   REMARKS
TULLAHOMA      CLEAR     70  68  94 CALM      30.00R
MCMINNVILLE    CLEAR     72  72 100 CALM      29.99R
SHELBYVILLE    CLEAR     72  72 100 CALM      29.99R
$$

TNZ017-018-042-046-047-301000-
NORTHEAST TENNESSEE

CITY           SKY/WX    TMP DP  RH WIND       PRES   REMARKS
TRI CITIES     CLOUDY    68  67  96 CALM      30.02R FOG
$$

TNZ012-013-036-069-073-074-301000-
CENTRAL EAST TENNESSEE

CITY           SKY/WX    TMP DP  RH WIND       PRES   REMARKS
KNOXVILLE      MOCLDY    73  69  87 CALM      29.98R
OAK RIDGE      CLOUDY    74  70  87 CALM      29.99R
GATLINBURG     CLEAR     70  68  94 CALM      29.99R
$$

TNZ083-085-099-301000-
SOUTHEAST TENNESSEE

CITY           SKY/WX    TMP DP  RH WIND       PRES   REMARKS
CHATTANOOGA    CLOUDY    74  70  87 CALM      29.97R
$$

SKY/WX REPORTED AS FAIR MEANS FEW OR NO CLOUDS BELOW
12 THOUSAND FEET.





USA.gov is the U.S. government's official web portal to all federal, state and local government web resources and services.